Time,TemperatureF,DewpointF,PressureIn,WindDirection,WindDirectionDegrees,WindSpeedMPH,WindSpeedGustMPH,Humidity,HourlyPrecipIn,Conditions,Clouds,dailyrainin,SoftwareType,DateUTC
2013-02-09 00:02:00,28.4,18.9,30.04,NW,325,14.0,28.0,67,0.00,,,0.00,meteohub,2013-02-09 05:02:00,
2013-02-09 00:07:00,28.4,18.5,30.04,NNW,348,13.0,25.0,66,0.00,,,0.00,meteohub,2013-02-09 05:07:00,
2013-02-09 00:17:00,28.4,17.4,30.01,WSW,258,7.0,30.0,63,0.00,,,0.00,meteohub,2013-02-09 05:17:00,
2013-02-09 00:22:00,28.4,16.7,30.01,SW,235,13.0,30.0,61,0.00,,,0.00,meteohub,2013-02-09 05:22:00,
2013-02-09 00:27:00,28.4,16.0,30.04,North,10,12.0,31.0,59,0.00,,,0.00,meteohub,2013-02-09 05:27:00,
2013-02-09 00:32:00,28.2,14.9,30.04,NNE,32,16.0,35.0,57,0.00,,,0.00,meteohub,2013-02-09 05:32:00,
2013-02-09 00:37:00,28.2,13.8,30.04,NNW,348,26.0,35.0,54,0.00,,,0.00,meteohub,2013-02-09 05:37:00,
2013-02-09 00:42:00,28.2,13.8,30.04,WNW,302,16.0,45.0,54,0.00,,,0.00,meteohub,2013-02-09 05:42:00,
2013-02-09 00:47:00,28.2,13.3,30.04,WNW,302,17.0,45.0,53,0.00,,,0.00,meteohub,2013-02-09 05:47:00,
2013-02-09 00:52:00,28.0,13.1,30.04,NNW,348,12.0,45.0,53,0.00,,,0.00,meteohub,2013-02-09 05:52:00,
2013-02-09 00:57:00,28.0,12.7,30.04,NNW,348,34.0,34.0,52,0.00,,,0.00,meteohub,2013-02-09 05:57:00,
2013-02-09 01:02:00,28.0,12.7,30.04,North,10,16.0,34.0,52,0.00,,,0.00,meteohub,2013-02-09 06:02:00,
2013-02-09 01:07:00,27.9,12.6,30.04,NNW,348,13.0,47.0,52,0.00,,,0.00,meteohub,2013-02-09 06:07:00,
2013-02-09 01:12:00,27.9,12.6,30.04,NNW,348,30.0,47.0,52,0.00,,,0.00,meteohub,2013-02-09 06:12:00,
2013-02-09 01:17:00,27.9,12.6,30.04,NNW,348,24.0,47.0,52,0.00,,,0.00,meteohub,2013-02-09 06:17:00,
2013-02-09 01:22:00,27.9,12.0,30.04,NW,325,30.0,51.0,51,0.00,,,0.00,meteohub,2013-02-09 06:22:00,
2013-02-09 01:27:00,27.7,12.4,30.04,WNW,302,9.0,51.0,52,0.00,,,0.00,meteohub,2013-02-09 06:27:00,
2013-02-09 01:32:00,27.7,12.0,30.04,South,190,12.0,52.0,51,0.00,,,0.00,meteohub,2013-02-09 06:32:00,
2013-02-09 01:37:00,27.5,11.3,30.04,WNW,302,21.0,52.0,50,0.00,,,0.00,meteohub,2013-02-09 06:37:00,
2013-02-09 01:42:00,27.3,11.7,30.04,NW,325,30.0,54.0,51,0.00,,,0.00,meteohub,2013-02-09 06:42:00,
2013-02-09 01:47:00,27.1,11.8,30.04,WNW,302,15.0,54.0,52,0.00,,,0.00,meteohub,2013-02-09 06:47:00,
2013-02-09 01:52:00,27.0,11.7,30.04,NNW,348,29.0,54.0,52,0.00,,,0.00,meteohub,2013-02-09 06:52:00,
2013-02-09 01:57:00,27.0,11.3,30.04,WNW,302,15.0,30.0,51,0.00,,,0.00,meteohub,2013-02-09 06:57:00,
2013-02-09 02:02:00,26.8,11.1,30.04,NNW,348,16.0,30.0,51,0.00,,,0.00,meteohub,2013-02-09 07:02:00,
2013-02-09 02:07:00,26.6,10.9,30.04,NNW,348,12.0,30.0,51,0.00,,,0.00,meteohub,2013-02-09 07:07:00,
2013-02-09 02:12:00,26.4,10.4,30.01,NNW,348,17.0,30.0,50,0.00,,,0.00,meteohub,2013-02-09 07:12:00,
2013-02-09 02:17:00,26.4,10.4,30.01,SSW,212,5.0,34.0,50,0.00,,,0.00,meteohub,2013-02-09 07:17:00,
2013-02-09 02:22:00,26.2,10.6,30.01,NNW,348,16.0,34.0,51,0.00,,,0.00,meteohub,2013-02-09 07:22:00,
2013-02-09 02:27:00,26.1,10.4,30.01,NNW,348,13.0,34.0,51,0.00,,,0.00,meteohub,2013-02-09 07:27:00,
2013-02-09 02:32:00,26.1,10.4,30.01,NNW,348,10.0,28.0,51,0.00,,,0.00,meteohub,2013-02-09 07:32:00,
2013-02-09 02:37:00,26.1,10.9,30.01,SW,235,13.0,21.0,52,0.00,,,0.00,meteohub,2013-02-09 07:37:00,
2013-02-09 02:42:00,26.1,10.9,30.04,WSW,258,11.0,21.0,52,0.00,,,0.00,meteohub,2013-02-09 07:42:00,
2013-02-09 02:47:00,25.9,10.2,30.04,WNW,302,21.0,21.0,51,0.00,,,0.00,meteohub,2013-02-09 07:47:00,
2013-02-09 02:52:00,25.7,9.1,30.04,SSE,168,9.0,25.0,49,0.00,,,0.00,meteohub,2013-02-09 07:52:00,
2013-02-09 02:57:00,25.5,9.5,30.04,NNW,348,13.0,25.0,50,0.00,,,0.00,meteohub,2013-02-09 07:57:00,
2013-02-09 03:02:00,25.3,9.3,30.04,NNW,348,9.0,25.0,50,0.00,,,0.00,meteohub,2013-02-09 08:02:00,
2013-02-09 03:07:00,25.3,9.0,30.04,NNW,348,22.0,25.0,49,0.00,,,0.00,meteohub,2013-02-09 08:07:00,
2013-02-09 03:12:00,25.3,9.0,30.04,NNW,348,17.0,30.0,49,0.00,,,0.00,meteohub,2013-02-09 08:12:00,
2013-02-09 03:17:00,25.3,9.0,30.04,West,280,15.0,30.0,49,0.00,,,0.00,meteohub,2013-02-09 08:17:00,
2013-02-09 03:22:00,25.2,9.1,30.04,NNW,348,21.0,30.0,50,0.00,,,0.00,meteohub,2013-02-09 08:22:00,
2013-02-09 03:27:00,25.0,8.6,30.04,NW,325,11.0,26.0,49,0.00,,,0.00,meteohub,2013-02-09 08:27:00,
2013-02-09 03:32:00,25.0,8.6,30.04,NW,325,21.0,31.0,49,0.00,,,0.00,meteohub,2013-02-09 08:32:00,
2013-02-09 03:37:00,25.0,8.1,30.04,NNW,348,21.0,39.0,48,0.00,,,0.00,meteohub,2013-02-09 08:37:00,
2013-02-09 03:42:00,24.8,8.4,30.04,NNW,348,21.0,41.0,49,0.00,,,0.00,meteohub,2013-02-09 08:42:00,
2013-02-09 03:47:00,24.6,8.2,30.04,NW,325,12.0,55.0,49,0.00,,,0.00,meteohub,2013-02-09 08:47:00,
2013-02-09 03:57:00,24.6,7.7,30.01,WNW,302,13.0,55.0,48,0.00,,,0.00,meteohub,2013-02-09 08:57:00,
2013-02-09 04:02:00,24.6,7.7,30.01,NNW,348,13.0,40.0,48,0.00,,,0.00,meteohub,2013-02-09 09:02:00,
2013-02-09 04:07:00,24.4,8.1,30.01,SSE,168,11.0,40.0,49,0.00,,,0.00,meteohub,2013-02-09 09:07:00,
2013-02-09 04:12:00,24.4,8.1,30.04,SSW,212,19.0,35.0,49,0.00,,,0.00,meteohub,2013-02-09 09:12:00,
2013-02-09 04:17:00,24.4,8.4,30.04,WSW,258,11.0,39.0,50,0.00,,,0.00,meteohub,2013-02-09 09:17:00,
2013-02-09 04:22:00,24.4,9.0,30.04,NNW,348,25.0,39.0,51,0.00,,,0.00,meteohub,2013-02-09 09:22:00,
2013-02-09 04:27:00,24.4,9.0,30.04,WNW,302,15.0,39.0,51,0.00,,,0.00,meteohub,2013-02-09 09:27:00,
2013-02-09 04:37:00,24.3,9.1,30.04,WNW,302,16.0,35.0,52,0.00,,,0.00,meteohub,2013-02-09 09:37:00,
2013-02-09 04:42:00,24.3,9.7,30.04,ENE,78,15.0,34.0,53,0.00,,,0.00,meteohub,2013-02-09 09:42:00,
2013-02-09 04:47:00,24.3,9.7,30.04,SSW,212,7.0,34.0,53,0.00,,,0.00,meteohub,2013-02-09 09:47:00,
2013-02-09 04:52:00,24.3,9.7,30.04,NNW,348,13.0,34.0,53,0.00,,,0.00,meteohub,2013-02-09 09:52:00,
2013-02-09 04:57:00,24.1,9.5,30.07,WSW,258,6.0,30.0,53,0.00,,,0.00,meteohub,2013-02-09 09:57:00,
2013-02-09 05:02:00,24.1,9.5,30.07,South,190,15.0,22.0,53,0.00,,,0.00,meteohub,2013-02-09 10:02:00,
2013-02-09 05:07:00,24.3,10.0,30.07,WSW,258,14.0,33.0,54,0.00,,,0.00,meteohub,2013-02-09 10:07:00,
2013-02-09 05:12:00,24.1,9.9,30.07,NNW,348,5.0,33.0,54,0.00,,,0.00,meteohub,2013-02-09 10:12:00,
2013-02-09 05:17:00,24.1,9.9,30.07,WSW,258,12.0,21.0,54,0.00,,,0.00,meteohub,2013-02-09 10:17:00,
2013-02-09 05:22:00,23.9,9.7,30.07,WNW,302,11.0,26.0,54,0.00,,,0.00,meteohub,2013-02-09 10:22:00,
2013-02-09 05:32:00,23.9,9.7,30.07,West,280,15.0,30.0,54,0.00,,,0.00,meteohub,2013-02-09 10:32:00,
2013-02-09 05:37:00,23.7,9.5,30.07,WSW,258,11.0,30.0,54,0.00,,,0.00,meteohub,2013-02-09 10:37:00,
2013-02-09 05:42:00,23.5,9.3,30.07,West,280,12.0,30.0,54,0.00,,,0.00,meteohub,2013-02-09 10:42:00,
2013-02-09 05:47:00,23.5,9.3,30.07,South,190,10.0,20.0,54,0.00,,,0.00,meteohub,2013-02-09 10:47:00,
2013-02-09 05:52:00,23.5,9.0,30.07,South,190,9.0,20.0,53,0.00,,,0.00,meteohub,2013-02-09 10:52:00,
2013-02-09 05:57:00,23.5,9.0,30.07,WSW,258,15.0,29.0,53,0.00,,,0.00,meteohub,2013-02-09 10:57:00,
2013-02-09 06:02:00,23.5,9.0,30.07,NW,325,5.0,29.0,53,0.00,,,0.00,meteohub,2013-02-09 11:02:00,
2013-02-09 06:07:00,23.2,8.6,30.07,West,280,7.0,29.0,53,0.00,,,0.00,meteohub,2013-02-09 11:07:00,
2013-02-09 06:12:00,23.0,8.8,30.10,SW,235,6.0,19.0,54,0.00,,,0.00,meteohub,2013-02-09 11:12:00,
2013-02-09 06:17:00,23.2,8.6,30.10,SSW,212,11.0,16.0,53,0.00,,,0.00,meteohub,2013-02-09 11:17:00,
2013-02-09 06:22:00,23.2,8.6,30.10,NNW,348,17.0,38.0,53,0.00,,,0.00,meteohub,2013-02-09 11:22:00,
2013-02-09 06:27:00,23.2,8.6,30.10,ESE,122,17.0,38.0,53,0.00,,,0.00,meteohub,2013-02-09 11:27:00,
2013-02-09 06:32:00,23.2,8.6,30.10,NE,55,3.0,38.0,53,0.00,,,0.00,meteohub,2013-02-09 11:32:00,
2013-02-09 06:37:00,23.0,8.4,30.10,SSE,168,9.0,25.0,53,0.00,,,0.00,meteohub,2013-02-09 11:37:00,
2013-02-09 06:42:00,22.8,8.8,30.10,SW,235,0.0,22.0,54,0.00,,,0.00,meteohub,2013-02-09 11:42:00,
2013-02-09 06:47:00,22.6,8.6,30.10,SSW,212,12.0,15.0,54,0.00,,,0.00,meteohub,2013-02-09 11:47:00,
2013-02-09 06:57:00,22.8,8.2,30.10,SSW,212,12.0,25.0,53,0.00,,,0.00,meteohub,2013-02-09 11:57:00,
2013-02-09 07:02:00,22.8,8.2,30.10,SSE,168,11.0,25.0,53,0.00,,,0.00,meteohub,2013-02-09 12:02:00,
2013-02-09 07:07:00,22.8,8.2,30.10,SSW,212,13.0,22.0,53,0.00,,,0.00,meteohub,2013-02-09 12:07:00,
2013-02-09 07:12:00,22.8,8.2,30.10,SSW,212,9.0,22.0,53,0.00,,,0.00,meteohub,2013-02-09 12:12:00,
2013-02-09 07:17:00,22.6,8.1,30.10,SSE,168,8.0,21.0,53,0.00,,,0.00,meteohub,2013-02-09 12:17:00,
2013-02-09 07:22:00,22.5,7.5,30.10,SE,145,11.0,21.0,52,0.00,,,0.00,meteohub,2013-02-09 12:22:00,
2013-02-09 07:27:00,22.5,7.5,30.10,SSW,212,12.0,13.0,52,0.00,,,0.00,meteohub,2013-02-09 12:27:00,
2013-02-09 07:32:00,22.5,7.5,30.10,South,190,5.0,16.0,52,0.00,,,0.00,meteohub,2013-02-09 12:32:00,
2013-02-09 07:37:00,22.3,7.3,30.10,South,190,8.0,16.0,52,0.00,,,0.00,meteohub,2013-02-09 12:37:00,
2013-02-09 07:42:00,22.5,7.2,30.10,South,190,3.0,17.0,51,0.00,,,0.00,meteohub,2013-02-09 12:42:00,
2013-02-09 07:47:00,22.3,7.3,30.10,South,190,4.0,17.0,52,0.00,,,0.00,meteohub,2013-02-09 12:47:00,
2013-02-09 07:52:00,22.1,7.2,30.10,SSW,212,4.0,17.0,52,0.00,,,0.00,meteohub,2013-02-09 12:52:00,
2013-02-09 07:57:00,22.1,7.2,30.13,SE,145,0.0,13.0,52,0.00,,,0.00,meteohub,2013-02-09 12:57:00,
2013-02-09 08:02:00,21.9,7.0,30.13,NNW,348,4.0,9.0,52,0.00,,,0.00,meteohub,2013-02-09 13:02:00,
2013-02-09 08:07:00,21.9,7.5,30.13,SSW,212,5.0,8.0,53,0.00,,,0.00,meteohub,2013-02-09 13:07:00,
2013-02-09 08:12:00,22.1,7.5,30.13,WSW,258,6.0,13.0,53,0.00,,,0.00,meteohub,2013-02-09 13:12:00,
2013-02-09 08:17:00,22.1,7.5,30.13,SSW,212,9.0,13.0,53,0.00,,,0.00,meteohub,2013-02-09 13:17:00,
2013-02-09 08:22:00,22.3,7.7,30.13,SW,235,5.0,13.0,53,0.00,,,0.00,meteohub,2013-02-09 13:22:00,
2013-02-09 08:27:00,22.5,7.9,30.16,WSW,258,7.0,11.0,53,0.00,,,0.00,meteohub,2013-02-09 13:27:00,
2013-02-09 08:32:00,22.5,7.9,30.16,ESE,122,3.0,11.0,53,0.00,,,0.00,meteohub,2013-02-09 13:32:00,
2013-02-09 08:42:00,22.8,8.2,30.16,North,10,7.0,15.0,53,0.00,,,0.00,meteohub,2013-02-09 13:42:00,
2013-02-09 08:47:00,23.2,8.2,30.16,North,10,6.0,15.0,52,0.00,,,0.00,meteohub,2013-02-09 13:47:00,
2013-02-09 08:52:00,23.4,8.4,30.16,South,190,6.0,17.0,52,0.00,,,0.00,meteohub,2013-02-09 13:52:00,
2013-02-09 08:57:00,23.5,8.1,30.16,SSW,212,5.0,17.0,51,0.00,,,0.00,meteohub,2013-02-09 13:57:00,
2013-02-09 09:02:00,23.7,7.3,30.16,WNW,302,15.0,15.0,49,0.00,,,0.00,meteohub,2013-02-09 14:02:00,
2013-02-09 09:07:00,23.9,7.5,30.16,SSE,168,6.0,15.0,49,0.00,,,0.00,meteohub,2013-02-09 14:07:00,
2013-02-09 09:12:00,24.1,7.7,30.16,WSW,258,5.0,15.0,49,0.00,,,0.00,meteohub,2013-02-09 14:12:00,
2013-02-09 09:17:00,24.4,7.2,30.16,SSE,168,15.0,15.0,47,0.00,,,0.00,meteohub,2013-02-09 14:17:00,
2013-02-09 09:22:00,25.0,7.2,30.16,WNW,302,9.0,15.0,46,0.00,,,0.00,meteohub,2013-02-09 14:22:00,
2013-02-09 09:27:00,25.0,6.6,30.19,NNW,348,11.0,19.0,45,0.00,,,0.00,meteohub,2013-02-09 14:27:00,
2013-02-09 09:32:00,25.2,6.8,30.19,SW,235,7.0,19.0,45,0.00,,,0.00,meteohub,2013-02-09 14:32:00,
2013-02-09 09:37:00,25.3,6.4,30.19,SE,145,6.0,16.0,44,0.00,,,0.00,meteohub,2013-02-09 14:37:00,
2013-02-09 09:42:00,25.9,7.0,30.16,WNW,302,9.0,15.0,44,0.00,,,0.00,meteohub,2013-02-09 14:42:00,
2013-02-09 09:47:00,26.8,7.9,30.16,WSW,258,5.0,15.0,44,0.00,,,0.00,meteohub,2013-02-09 14:47:00,
2013-02-09 09:52:00,27.9,8.2,30.16,NNW,348,7.0,16.0,43,0.00,,,0.00,meteohub,2013-02-09 14:52:00,
2013-02-09 09:57:00,28.9,8.8,30.16,NNW,348,9.0,16.0,42,0.00,,,0.00,meteohub,2013-02-09 14:57:00,
2013-02-09 10:02:00,29.8,9.5,30.16,SW,235,8.0,17.0,42,0.00,,,0.00,meteohub,2013-02-09 15:02:00,
2013-02-09 10:07:00,30.6,9.7,30.16,WNW,302,3.0,21.0,41,0.00,,,0.00,meteohub,2013-02-09 15:07:00,
2013-02-09 10:12:00,31.1,9.7,30.13,NW,325,17.0,21.0,40,0.00,,,0.00,meteohub,2013-02-09 15:12:00,
2013-02-09 10:17:00,31.1,9.7,30.13,WNW,302,6.0,21.0,40,0.00,,,0.00,meteohub,2013-02-09 15:17:00,
2013-02-09 10:22:00,31.8,10.2,30.13,West,280,13.0,21.0,40,0.00,,,0.00,meteohub,2013-02-09 15:22:00,
2013-02-09 10:32:00,32.5,9.9,30.16,NNW,348,3.0,20.0,38,0.00,,,0.00,meteohub,2013-02-09 15:32:00,
2013-02-09 10:37:00,33.3,10.4,30.16,NW,325,12.0,20.0,38,0.00,,,0.00,meteohub,2013-02-09 15:37:00,
2013-02-09 10:42:00,33.4,10.0,30.13,WNW,302,8.0,20.0,37,0.00,,,0.00,meteohub,2013-02-09 15:42:00,
2013-02-09 10:47:00,33.8,10.4,30.13,WNW,302,8.0,16.0,37,0.00,,,0.00,meteohub,2013-02-09 15:47:00,
2013-02-09 10:52:00,34.0,10.6,30.13,NW,325,8.0,17.0,37,0.00,,,0.00,meteohub,2013-02-09 15:52:00,
2013-02-09 10:57:00,34.9,11.3,30.16,WSW,258,3.0,17.0,37,0.00,,,0.00,meteohub,2013-02-09 15:57:00,
2013-02-09 11:02:00,35.6,10.8,30.16,WSW,258,12.0,17.0,35,0.00,,,0.00,meteohub,2013-02-09 16:02:00,
2013-02-09 11:07:00,35.8,10.9,30.16,NNW,348,11.0,17.0,35,0.00,,,0.00,meteohub,2013-02-09 16:07:00,
2013-02-09 11:12:00,35.6,10.0,30.16,South,190,14.0,14.0,34,0.00,,,0.00,meteohub,2013-02-09 16:12:00,
2013-02-09 11:17:00,36.5,11.5,30.16,West,280,7.0,17.0,35,0.00,,,0.00,meteohub,2013-02-09 16:17:00,
2013-02-09 11:22:00,36.1,9.9,30.16,NNW,348,5.0,17.0,33,0.00,,,0.00,meteohub,2013-02-09 16:22:00,
2013-02-09 11:27:00,36.7,10.9,30.16,WSW,258,5.0,17.0,34,0.00,,,0.00,meteohub,2013-02-09 16:27:00,
2013-02-09 11:32:00,37.0,11.3,30.16,WNW,302,12.0,16.0,34,0.00,,,0.00,meteohub,2013-02-09 16:32:00,
2013-02-09 11:42:00,37.8,11.3,30.16,NNW,348,12.0,15.0,33,0.00,,,0.00,meteohub,2013-02-09 16:42:00,
2013-02-09 11:47:00,38.1,10.9,30.16,WSW,258,5.0,16.0,32,0.00,,,0.00,meteohub,2013-02-09 16:47:00,
2013-02-09 11:52:00,38.8,11.7,30.16,NNW,348,6.0,16.0,32,0.00,,,0.00,meteohub,2013-02-09 16:52:00,
2013-02-09 11:57:00,39.2,11.8,30.16,WSW,258,5.0,13.0,32,0.00,,,0.00,meteohub,2013-02-09 16:57:00,
2013-02-09 12:02:00,38.8,11.7,30.16,SSW,212,5.0,14.0,32,0.00,,,0.00,meteohub,2013-02-09 17:02:00,
2013-02-09 12:12:00,38.7,10.8,30.16,North,10,8.0,17.0,31,0.00,,,0.00,meteohub,2013-02-09 17:12:00,
2013-02-09 12:17:00,39.4,10.6,30.16,NNW,348,6.0,17.0,30,0.00,,,0.00,meteohub,2013-02-09 17:17:00,
2013-02-09 12:22:00,40.6,12.4,30.16,WSW,258,4.0,16.0,31,0.00,,,0.00,meteohub,2013-02-09 17:22:00,
2013-02-09 12:27:00,41.7,13.5,30.16,West,280,14.0,14.0,31,0.00,,,0.00,meteohub,2013-02-09 17:27:00,
2013-02-09 12:32:00,41.7,12.6,30.16,WNW,302,7.0,16.0,30,0.00,,,0.00,meteohub,2013-02-09 17:32:00,
2013-02-09 12:37:00,41.4,12.4,30.16,South,190,5.0,16.0,30,0.00,,,0.00,meteohub,2013-02-09 17:37:00,
2013-02-09 12:42:00,41.4,12.4,30.16,WSW,258,9.0,16.0,30,0.00,,,0.00,meteohub,2013-02-09 17:42:00,
2013-02-09 12:52:00,42.3,12.4,30.16,NNW,348,8.0,16.0,29,0.00,,,0.00,meteohub,2013-02-09 17:52:00,
2013-02-09 12:57:00,42.3,12.4,30.16,NW,325,9.0,16.0,29,0.00,,,0.00,meteohub,2013-02-09 17:57:00,
2013-02-09 13:02:00,42.4,12.6,30.16,WSW,258,5.0,16.0,29,0.00,,,0.00,meteohub,2013-02-09 18:02:00,
2013-02-09 13:07:00,42.4,12.6,30.16,WSW,258,3.0,16.0,29,0.00,,,0.00,meteohub,2013-02-09 18:07:00,
2013-02-09 13:12:00,41.7,11.8,30.16,NNW,348,10.0,16.0,29,0.00,,,0.00,meteohub,2013-02-09 18:12:00,
2013-02-09 13:17:00,43.2,13.1,30.16,WSW,258,12.0,16.0,29,0.00,,,0.00,meteohub,2013-02-09 18:17:00,
2013-02-09 13:22:00,43.3,13.3,30.16,WNW,302,8.0,16.0,29,0.00,,,0.00,meteohub,2013-02-09 18:22:00,
2013-02-09 13:27:00,43.5,13.5,30.13,SSW,212,5.0,13.0,29,0.00,,,0.00,meteohub,2013-02-09 18:27:00,
2013-02-09 13:37:00,44.8,13.8,30.13,WNW,302,4.0,11.0,28,0.00,,,0.00,meteohub,2013-02-09 18:37:00,
2013-02-09 13:42:00,46.0,14.9,30.16,NNW,348,3.0,11.0,28,0.00,,,0.00,meteohub,2013-02-09 18:42:00,
2013-02-09 13:47:00,45.1,14.0,30.16,West,280,5.0,13.0,28,0.00,,,0.00,meteohub,2013-02-09 18:47:00,
2013-02-09 13:52:00,46.2,14.9,30.16,WNW,302,9.0,13.0,28,0.00,,,0.00,meteohub,2013-02-09 18:52:00,
2013-02-09 13:57:00,45.5,14.4,30.16,SSW,212,2.0,13.0,28,0.00,,,0.00,meteohub,2013-02-09 18:57:00,
2013-02-09 14:02:00,45.3,14.2,30.16,SSW,212,13.0,13.0,28,0.00,,,0.00,meteohub,2013-02-09 19:02:00,
2013-02-09 14:07:00,45.3,14.2,30.16,SSE,168,5.0,13.0,28,0.00,,,0.00,meteohub,2013-02-09 19:07:00,
2013-02-09 14:12:00,45.7,14.5,30.16,SSW,212,7.0,15.0,28,0.00,,,0.00,meteohub,2013-02-09 19:12:00,
2013-02-09 14:17:00,46.4,14.4,30.16,WNW,302,6.0,15.0,27,0.00,,,0.00,meteohub,2013-02-09 19:17:00,
2013-02-09 14:22:00,46.2,14.9,30.16,SSW,212,5.0,15.0,28,0.00,,,0.00,meteohub,2013-02-09 19:22:00,
2013-02-09 14:27:00,46.4,14.4,30.16,SSW,212,6.0,14.0,27,0.00,,,0.00,meteohub,2013-02-09 19:27:00,
2013-02-09 14:32:00,46.4,14.4,30.16,South,190,16.0,16.0,27,0.00,,,0.00,meteohub,2013-02-09 19:32:00,
2013-02-09 14:37:00,46.2,14.9,30.16,WSW,258,8.0,16.0,28,0.00,,,0.00,meteohub,2013-02-09 19:37:00,
2013-02-09 14:42:00,46.8,14.5,30.16,South,190,11.0,16.0,27,0.00,,,0.00,meteohub,2013-02-09 19:42:00,
2013-02-09 14:47:00,46.0,14.0,30.16,NW,325,9.0,16.0,27,0.00,,,0.00,meteohub,2013-02-09 19:47:00,
2013-02-09 14:52:00,46.0,14.9,30.16,South,190,5.0,11.0,28,0.00,,,0.00,meteohub,2013-02-09 19:52:00,
2013-02-09 14:57:00,46.8,14.5,30.16,SSW,212,4.0,12.0,27,0.00,,,0.00,meteohub,2013-02-09 19:57:00,
2013-02-09 15:02:00,47.3,15.1,30.16,SSW,212,8.0,12.0,27,0.00,,,0.00,meteohub,2013-02-09 20:02:00,
2013-02-09 15:07:00,46.9,14.7,30.16,SW,235,4.0,12.0,27,0.00,,,0.00,meteohub,2013-02-09 20:07:00,
2013-02-09 15:12:00,46.8,14.5,30.16,NNW,348,11.0,13.0,27,0.00,,,0.00,meteohub,2013-02-09 20:12:00,
2013-02-09 15:17:00,45.7,13.6,30.16,NNW,348,15.0,15.0,27,0.00,,,0.00,meteohub,2013-02-09 20:17:00,
2013-02-09 15:22:00,45.3,13.5,30.16,NNW,348,9.0,18.0,27,0.00,,,0.00,meteohub,2013-02-09 20:22:00,
2013-02-09 15:27:00,45.5,13.5,30.16,WNW,302,13.0,18.0,27,0.00,,,0.00,meteohub,2013-02-09 20:27:00,
2013-02-09 15:32:00,46.0,14.0,30.16,WSW,258,6.0,18.0,27,0.00,,,0.00,meteohub,2013-02-09 20:32:00,
2013-02-09 15:37:00,45.9,13.8,30.16,SSW,212,3.0,16.0,27,0.00,,,0.00,meteohub,2013-02-09 20:37:00,
2013-02-09 15:42:00,46.2,14.2,30.19,WNW,302,12.0,13.0,27,0.00,,,0.00,meteohub,2013-02-09 20:42:00,
2013-02-09 15:52:00,46.6,14.5,30.19,WSW,258,2.0,14.0,27,0.00,,,0.00,meteohub,2013-02-09 20:52:00,
2013-02-09 15:57:00,46.4,14.4,30.16,SW,235,6.0,14.0,27,0.00,,,0.00,meteohub,2013-02-09 20:57:00,
2013-02-09 16:02:00,46.6,14.5,30.16,WSW,258,3.0,11.0,27,0.00,,,0.00,meteohub,2013-02-09 21:02:00,
2013-02-09 16:07:00,46.6,14.5,30.16,West,280,7.0,10.0,27,0.00,,,0.00,meteohub,2013-02-09 21:07:00,
2013-02-09 16:12:00,46.2,14.2,30.16,NW,325,3.0,10.0,27,0.00,,,0.00,meteohub,2013-02-09 21:12:00,
2013-02-09 16:17:00,46.4,14.4,30.16,North,10,8.0,10.0,27,0.00,,,0.00,meteohub,2013-02-09 21:17:00,
2013-02-09 16:22:00,46.2,12.4,30.16,NNE,32,5.0,10.0,25,0.00,,,0.00,meteohub,2013-02-09 21:22:00,
2013-02-09 16:27:00,46.0,14.0,30.19,North,10,5.0,14.0,27,0.00,,,0.00,meteohub,2013-02-09 21:27:00,
2013-02-09 16:32:00,46.4,14.4,30.19,SSE,168,3.0,14.0,27,0.00,,,0.00,meteohub,2013-02-09 21:32:00,
2013-02-09 16:42:00,45.7,13.6,30.16,WNW,302,3.0,9.0,27,0.00,,,0.00,meteohub,2013-02-09 21:42:00,
2013-02-09 16:47:00,45.3,13.5,30.16,NW,325,3.0,8.0,27,0.00,,,0.00,meteohub,2013-02-09 21:47:00,
2013-02-09 16:52:00,45.5,13.5,30.16,WSW,258,5.0,8.0,27,0.00,,,0.00,meteohub,2013-02-09 21:52:00,
2013-02-09 16:57:00,44.6,12.7,30.16,SSW,212,5.0,7.0,27,0.00,,,0.00,meteohub,2013-02-09 21:57:00,
2013-02-09 17:02:00,44.4,13.5,30.16,WSW,258,6.0,8.0,28,0.00,,,0.00,meteohub,2013-02-09 22:02:00,
2013-02-09 17:12:00,42.6,11.8,30.16,WSW,258,4.0,11.0,28,0.00,,,0.00,meteohub,2013-02-09 22:12:00,
2013-02-09 17:17:00,41.0,10.4,30.16,WSW,258,6.0,13.0,28,0.00,,,0.00,meteohub,2013-02-09 22:17:00,
2013-02-09 17:22:00,39.7,10.2,30.16,SE,145,3.0,13.0,29,0.00,,,0.00,meteohub,2013-02-09 22:22:00,
2013-02-09 17:27:00,38.1,8.8,30.16,ESE,122,2.0,10.0,29,0.00,,,0.00,meteohub,2013-02-09 22:27:00,
2013-02-09 17:32:00,37.2,8.8,30.16,SSE,168,4.0,10.0,30,0.00,,,0.00,meteohub,2013-02-09 22:32:00,
2013-02-09 17:37:00,36.5,8.1,30.16,South,190,4.0,7.0,30,0.00,,,0.00,meteohub,2013-02-09 22:37:00,
2013-02-09 17:42:00,35.8,7.5,30.19,NNE,32,0.0,7.0,30,0.00,,,0.00,meteohub,2013-02-09 22:42:00,
2013-02-09 17:52:00,34.9,7.3,30.19,SE,145,5.0,6.0,31,0.00,,,0.00,meteohub,2013-02-09 22:52:00,
2013-02-09 17:57:00,34.3,7.0,30.19,SSE,168,7.0,7.0,31,0.00,,,0.00,meteohub,2013-02-09 22:57:00,
2013-02-09 18:07:00,34.0,6.6,30.19,South,190,6.0,8.0,31,0.00,,,0.00,meteohub,2013-02-09 23:07:00,
2013-02-09 18:17:00,32.9,6.4,30.19,SE,145,6.0,8.0,32,0.00,,,0.00,meteohub,2013-02-09 23:17:00,
2013-02-09 18:27:00,32.2,6.4,30.19,SE,145,4.0,6.0,33,0.00,,,0.00,meteohub,2013-02-09 23:27:00,
2013-02-09 18:37:00,31.3,6.3,30.19,SSE,168,5.0,6.0,34,0.00,,,0.00,meteohub,2013-02-09 23:37:00,
2013-02-09 18:42:00,30.9,5.9,30.19,SSE,168,4.0,6.0,34,0.00,,,0.00,meteohub,2013-02-09 23:42:00,
2013-02-09 18:47:00,30.6,6.3,30.19,SSE,168,0.0,6.0,35,0.00,,,0.00,meteohub,2013-02-09 23:47:00,
2013-02-09 18:57:00,29.1,5.5,30.22,NNE,32,3.0,6.0,36,0.00,,,0.00,meteohub,2013-02-09 23:57:00,
2013-02-09 19:02:00,28.6,5.7,30.22,NNE,32,0.0,4.0,37,0.00,,,0.00,meteohub,2013-02-10 00:02:00,
2013-02-09 19:07:00,28.0,5.7,30.22,NNE,32,0.0,4.0,38,0.00,,,0.00,meteohub,2013-02-10 00:07:00,
2013-02-09 19:17:00,27.7,6.6,30.19,ESE,122,0.0,0.0,40,0.00,,,0.00,meteohub,2013-02-10 00:17:00,
2013-02-09 19:22:00,27.1,6.1,30.19,ESE,122,0.0,0.0,40,0.00,,,0.00,meteohub,2013-02-10 00:22:00,
2013-02-09 19:32:00,26.8,6.3,30.22,East,100,0.0,0.0,41,0.00,,,0.00,meteohub,2013-02-10 00:32:00,
2013-02-09 19:37:00,26.2,5.7,30.22,East,100,0.0,0.0,41,0.00,,,0.00,meteohub,2013-02-10 00:37:00,
2013-02-09 19:42:00,26.1,6.1,30.22,East,100,0.0,0.0,42,0.00,,,0.00,meteohub,2013-02-10 00:42:00,
2013-02-09 19:47:00,25.9,5.9,30.22,East,100,0.0,0.0,42,0.00,,,0.00,meteohub,2013-02-10 00:47:00,
2013-02-09 19:52:00,25.9,5.9,30.22,East,100,0.0,0.0,42,0.00,,,0.00,meteohub,2013-02-10 00:52:00,
2013-02-09 20:02:00,25.3,5.5,30.22,East,100,0.0,0.0,42,0.00,,,0.00,meteohub,2013-02-10 01:02:00,
2013-02-09 20:12:00,25.3,5.5,30.22,SE,145,0.0,0.0,42,0.00,,,0.00,meteohub,2013-02-10 01:12:00,
2013-02-09 20:17:00,25.0,5.7,30.22,East,100,0.0,0.0,43,0.00,,,0.00,meteohub,2013-02-10 01:17:00,
2013-02-09 20:22:00,24.8,6.1,30.22,East,100,0.0,0.0,44,0.00,,,0.00,meteohub,2013-02-10 01:22:00,
2013-02-09 20:27:00,24.3,5.5,30.22,East,100,0.0,0.0,44,0.00,,,0.00,meteohub,2013-02-10 01:27:00,
2013-02-09 20:32:00,23.9,5.2,30.22,East,100,0.0,0.0,44,0.00,,,0.00,meteohub,2013-02-10 01:32:00,
2013-02-09 20:42:00,23.9,5.7,30.19,East,100,0.0,0.0,45,0.00,,,0.00,meteohub,2013-02-10 01:42:00,
2013-02-09 20:47:00,23.5,5.9,30.19,East,100,0.0,0.0,46,0.00,,,0.00,meteohub,2013-02-10 01:47:00,
2013-02-09 20:52:00,23.2,5.0,30.19,East,100,0.0,0.0,45,0.00,,,0.00,meteohub,2013-02-10 01:52:00,
2013-02-09 20:57:00,23.2,5.0,30.22,SSE,168,4.0,0.0,45,0.00,,,0.00,meteohub,2013-02-10 01:57:00,
2013-02-09 21:02:00,23.4,5.7,30.22,ESE,122,2.0,5.0,46,0.00,,,0.00,meteohub,2013-02-10 02:02:00,
2013-02-09 21:07:00,23.4,5.7,30.22,East,100,0.0,5.0,46,0.00,,,0.00,meteohub,2013-02-10 02:07:00,
2013-02-09 21:12:00,23.2,5.9,30.22,East,100,0.0,5.0,47,0.00,,,0.00,meteohub,2013-02-10 02:12:00,
2013-02-09 21:27:00,22.8,6.1,30.22,East,100,0.0,0.0,48,0.00,,,0.00,meteohub,2013-02-10 02:27:00,
2013-02-09 21:32:00,22.6,5.9,30.22,East,100,0.0,0.0,48,0.00,,,0.00,meteohub,2013-02-10 02:32:00,
2013-02-09 21:42:00,22.5,6.3,30.22,East,100,0.0,2.0,49,0.00,,,0.00,meteohub,2013-02-10 02:42:00,
2013-02-09 21:47:00,22.5,6.3,30.22,SSE,168,0.0,2.0,49,0.00,,,0.00,meteohub,2013-02-10 02:47:00,
2013-02-09 21:52:00,22.5,6.6,30.22,SSE,168,0.0,2.0,50,0.00,,,0.00,meteohub,2013-02-10 02:52:00,
2013-02-09 21:57:00,22.5,7.2,30.22,NE,55,0.0,0.0,51,0.00,,,0.00,meteohub,2013-02-10 02:57:00,
2013-02-09 22:02:00,22.1,7.2,30.22,NE,55,0.0,0.0,52,0.00,,,0.00,meteohub,2013-02-10 03:02:00,
2013-02-09 22:07:00,21.7,7.3,30.22,NE,55,0.0,0.0,53,0.00,,,0.00,meteohub,2013-02-10 03:07:00,
2013-02-09 22:12:00,21.6,6.6,30.22,NE,55,0.0,0.0,52,0.00,,,0.00,meteohub,2013-02-10 03:12:00,
2013-02-09 22:22:00,21.0,6.6,30.22,NE,55,0.0,0.0,53,0.00,,,0.00,meteohub,2013-02-10 03:22:00,
2013-02-09 22:27:00,20.8,6.4,30.22,NE,55,0.0,0.0,53,0.00,,,0.00,meteohub,2013-02-10 03:27:00,
2013-02-09 22:32:00,20.8,6.4,30.22,NE,55,0.0,0.0,53,0.00,,,0.00,meteohub,2013-02-10 03:32:00,
2013-02-09 22:42:00,21.0,7.0,30.22,NE,55,0.0,0.0,54,0.00,,,0.00,meteohub,2013-02-10 03:42:00,
2013-02-09 22:47:00,20.8,6.8,30.22,ENE,78,0.0,0.0,54,0.00,,,0.00,meteohub,2013-02-10 03:47:00,
2013-02-09 22:57:00,20.3,6.3,30.22,ENE,78,0.0,0.0,54,0.00,,,0.00,meteohub,2013-02-10 03:57:00,
2013-02-09 23:07:00,20.3,6.8,30.22,ENE,78,0.0,0.0,55,0.00,,,0.00,meteohub,2013-02-10 04:07:00,
2013-02-09 23:12:00,20.3,6.8,30.22,ENE,78,0.0,0.0,55,0.00,,,0.00,meteohub,2013-02-10 04:12:00,
2013-02-09 23:17:00,19.9,6.8,30.22,ENE,78,0.0,0.0,56,0.00,,,0.00,meteohub,2013-02-10 04:17:00,
2013-02-09 23:22:00,19.9,6.8,30.22,ENE,78,0.0,0.0,56,0.00,,,0.00,meteohub,2013-02-10 04:22:00,
2013-02-09 23:27:00,19.9,6.8,30.22,ENE,78,0.0,0.0,56,0.00,,,0.00,meteohub,2013-02-10 04:27:00,
2013-02-09 23:32:00,19.6,6.4,30.22,ENE,78,0.0,0.0,56,0.00,,,0.00,meteohub,2013-02-10 04:32:00,
2013-02-09 23:42:00,19.6,6.4,30.19,ENE,78,0.0,0.0,56,0.00,,,0.00,meteohub,2013-02-10 04:42:00,
2013-02-09 23:47:00,19.4,6.6,30.19,ENE,78,0.0,0.0,57,0.00,,,0.00,meteohub,2013-02-10 04:47:00,
2013-02-09 23:52:00,19.2,6.4,30.19,ENE,78,0.0,0.0,57,0.00,,,0.00,meteohub,2013-02-10 04:52:00,